When you browse on this site, cookies collect data to enhance your experience and personalize the content and advertising you see.
Visit our Privacy Policy to learn more. By continuing to use the site, you agree to this use of cookies and data.
  • în România
  • Lista ţărilor
  • Pe 7 zile
  • Temperatura apei
  • Hartă satelitară
  • Meteo pe hartă
  • Widget-uri
  • user-avatar
    Intrare

    Meteo pe oră la Madang

    Astăzi, 21 Iulie, Duminică

    Timp Temperatura Precipitaţii Vânt Presiune Umiditate
    00:00 +27°C° 0.2 mm 1 m/s 758 mmHg 94%
    01:00 +27°C° 0.2 mm 1 m/s 757 mmHg 95%
    02:00 +27°C° 0.1 mm 1 m/s 757 mmHg 94%
    03:00 +26°C° 0.1 mm 1 m/s 757 mmHg 94%
    04:00 +26°C° 0.1 mm 1 m/s 756 mmHg 94%
    05:00 +26°C° 0.1 mm 1 m/s 757 mmHg 94%
    06:00 +27°C° 0.1 mm 1 m/s 757 mmHg 93%
    07:00 +27°C° 0.1 mm 1 m/s 757 mmHg 92%
    08:00 +28°C° 0 mm 1 m/s 757 mmHg 84%
    09:00 +30°C° 0 mm 1 m/s 757 mmHg 76%
    10:00 +32°C° 0 mm 1 m/s 757 mmHg 68%
    11:00 +32°C° 0.3 mm 2 m/s 757 mmHg 71%
    12:00 +33°C° 0.3 mm 3 m/s 756 mmHg 74%
    13:00 +33°C° 0.3 mm 4 m/s 756 mmHg 76%
    14:00 +31°C° 0.3 mm 3 m/s 755 mmHg 76%
    15:00 +31°C° 0.3 mm 3 m/s 755 mmHg 76%
    16:00 +31°C° 0.3 mm 3 m/s 754 mmHg 76%
    17:00 +30°C° 0.2 mm 2 m/s 755 mmHg 81%
    18:00 +29°C° 0.2 mm 2 m/s 755 mmHg 86%
    19:00 +28°C° 0.2 mm 1 m/s 756 mmHg 91%
    20:00 +27°C° 0.6 mm 2 m/s 757 mmHg 92%
    21:00 +27°C° 0.6 mm 2 m/s 757 mmHg 93%
    22:00 +27°C° 0.6 mm 2 m/s 758 mmHg 94%
    23:00 +27°C° 1.3 mm 2 m/s 757 mmHg 94%

    Mâine, 22 Iulie, Luni

    Timp Temperatura Precipitaţii Vânt Presiune Umiditate
    00:00 +27°C° 1.3 mm 2 m/s 757 mmHg 94%
    01:00 +26°C° 1.3 mm 3 m/s 756 mmHg 94%
    02:00 +26°C° 0.2 mm 2 m/s 756 mmHg 94%
    03:00 +26°C° 0.2 mm 2 m/s 756 mmHg 94%
    04:00 +26°C° 0.2 mm 1 m/s 756 mmHg 94%
    05:00 +26°C° 0.1 mm 1 m/s 756 mmHg 94%
    06:00 +26°C° 0.1 mm 1 m/s 756 mmHg 93%
    07:00 +26°C° 0.1 mm 1 m/s 757 mmHg 93%
    08:00 +28°C° 0.2 mm 1 m/s 757 mmHg 87%
    09:00 +29°C° 0.2 mm 1 m/s 757 mmHg 80%
    10:00 +31°C° 0.2 mm 1 m/s 757 mmHg 74%
    11:00 +31°C° 0.5 mm 1 m/s 756 mmHg 73%
    12:00 +32°C° 0.5 mm 2 m/s 756 mmHg 71%
    13:00 +32°C° 0.5 mm 2 m/s 755 mmHg 70%
    14:00 +32°C° 0.4 mm 2 m/s 755 mmHg 71%
    15:00 +31°C° 0.4 mm 2 m/s 754 mmHg 71%
    16:00 +31°C° 0.4 mm 3 m/s 754 mmHg 72%
    17:00 +30°C° 0.2 mm 3 m/s 755 mmHg 78%
    18:00 +29°C° 0.2 mm 3 m/s 755 mmHg 83%
    19:00 +28°C° 0.2 mm 3 m/s 756 mmHg 89%
    20:00 +27°C° 0.8 mm 3 m/s 756 mmHg 90%
    21:00 +27°C° 0.8 mm 3 m/s 757 mmHg 91%
    22:00 +27°C° 0.8 mm 3 m/s 757 mmHg 93%
    23:00 +27°C° 0.7 mm 3 m/s 757 mmHg 93%

    Poimâine, 23 Iulie, Marţi

    Timp Temperatura Precipitaţii Vânt Presiune Umiditate
    00:00 +27°C° 0.7 mm 2 m/s 757 mmHg 93%
    01:00 +26°C° 0.7 mm 2 m/s 756 mmHg 94%
    02:00 +26°C° 0.9 mm 2 m/s 756 mmHg 94%
    03:00 +26°C° 0.9 mm 2 m/s 756 mmHg 94%
    04:00 +26°C° 0.9 mm 2 m/s 756 mmHg 94%
    05:00 +26°C° 1.2 mm 2 m/s 756 mmHg 94%
    06:00 +26°C° 1.2 mm 2 m/s 757 mmHg 94%
    07:00 +26°C° 1.2 mm 2 m/s 757 mmHg 94%
    08:00 +27°C° 1 mm 2 m/s 758 mmHg 92%
    09:00 +27°C° 1 mm 2 m/s 758 mmHg 91%
    10:00 +28°C° 1 mm 2 m/s 758 mmHg 90%
    11:00 +28°C° 0.5 mm 1 m/s 757 mmHg 90%
    12:00 +28°C° 0.5 mm 1 m/s 757 mmHg 89%
    13:00 +28°C° 0.5 mm 1 m/s 756 mmHg 89%
    14:00 +29°C° 0 mm 1 m/s 756 mmHg 84%
    15:00 +30°C° 0 mm 2 m/s 755 mmHg 79%
    16:00 +30°C° 0 mm 2 m/s 755 mmHg 75%
    17:00 +29°C° 0 mm 1 m/s 755 mmHg 79%
    18:00 +28°C° 0 mm 1 m/s 756 mmHg 84%
    19:00 +25°C° 0 mm 0 m/s 756 mmHg 89%
    20:00 +27°C° 0 mm 1 m/s 757 mmHg 90%
    21:00 +27°C° 0 mm 1 m/s 758 mmHg 90%
    22:00 +26°C° 0 mm 1 m/s 758 mmHg 90%
    23:00 +26°C° 0 mm 1 m/s 758 mmHg 90%

    24 Iulie, Miercuri

    Timp Temperatura Precipitaţii Vânt Presiune Umiditate
    00:00 +26°C° 0 mm 1 m/s 758 mmHg 90%
    01:00 +26°C° 0 mm 1 m/s 757 mmHg 90%
    02:00 +26°C° 0 mm 2 m/s 757 mmHg 90%
    03:00 +26°C° 0 mm 2 m/s 757 mmHg 90%
    04:00 +26°C° 0 mm 2 m/s 757 mmHg 90%
    05:00 +26°C° 0 mm 2 m/s 757 mmHg 89%
    06:00 +26°C° 0 mm 2 m/s 758 mmHg 88%
    07:00 +26°C° 0 mm 2 m/s 758 mmHg 88%
    08:00 +28°C° 0 mm 2 m/s 758 mmHg 78%
    09:00 +30°C° 0 mm 1 m/s 758 mmHg 68%
    10:00 +33°C° 0 mm 1 m/s 758 mmHg 58%
    11:00 +34°C° 0 mm 2 m/s 758 mmHg 58%
    12:00 +34°C° 0 mm 2 m/s 757 mmHg 59%
    13:00 +35°C° 0 mm 3 m/s 756 mmHg 59%
    14:00 +34°C° 0.1 mm 3 m/s 756 mmHg 64%
    15:00 +33°C° 0.1 mm 4 m/s 756 mmHg 68%
    16:00 +32°C° 0.1 mm 4 m/s 755 mmHg 72%
    17:00 +30°C° 0.1 mm 3 m/s 756 mmHg 78%
    18:00 +29°C° 0.1 mm 3 m/s 756 mmHg 84%
    19:00 +28°C° 0.1 mm 3 m/s 757 mmHg 89%
    20:00 +28°C° 0 mm 2 m/s 757 mmHg 90%
    21:00 +28°C° 0 mm 2 m/s 758 mmHg 90%
    22:00 +28°C° 0 mm 2 m/s 759 mmHg 90%
    23:00 +27°C° 0 mm 2 m/s 758 mmHg 91%

    25 Iulie, Joi

    Timp Temperatura Precipitaţii Vânt Presiune Umiditate
    00:00 +27°C° 0 mm 2 m/s 758 mmHg 91%
    01:00 +27°C° 0 mm 1 m/s 758 mmHg 92%
    02:00 +27°C° 0 mm 1 m/s 757 mmHg 92%
    03:00 +26°C° 0 mm 1 m/s 757 mmHg 92%
    04:00 +26°C° 0 mm 1 m/s 757 mmHg 92%
    05:00 +26°C° 0.1 mm 1 m/s 757 mmHg 91%
    06:00 +26°C° 0.1 mm 1 m/s 758 mmHg 91%
    07:00 +26°C° 0.1 mm 1 m/s 758 mmHg 90%
    08:00 +28°C° 0.1 mm 1 m/s 758 mmHg 82%
    09:00 +30°C° 0.1 mm 1 m/s 758 mmHg 74%
    10:00 +32°C° 0.1 mm 1 m/s 758 mmHg 67%
    11:00 +31°C° 0.4 mm 2 m/s 758 mmHg 72%
    12:00 +31°C° 0.4 mm 3 m/s 757 mmHg 77%
    13:00 +30°C° 0.4 mm 5 m/s 757 mmHg 83%
    14:00 +29°C° 1 mm 5 m/s 757 mmHg 85%
    15:00 +29°C° 1 mm 5 m/s 756 mmHg 88%
    16:00 +28°C° 1 mm 5 m/s 756 mmHg 91%
    17:00 +28°C° 0.7 mm 4 m/s 757 mmHg 92%
    18:00 +27°C° 0.7 mm 4 m/s 757 mmHg 92%
    19:00 +27°C° 0.7 mm 4 m/s 758 mmHg 93%
    20:00 +27°C° 0.4 mm 3 m/s 758 mmHg 93%
    21:00 +27°C° 0.4 mm 3 m/s 759 mmHg 93%
    22:00 +27°C° 0.4 mm 2 m/s 759 mmHg 93%
    23:00 +27°C° 0.4 mm 2 m/s 759 mmHg 94%

    26 Iulie, Vineri

    Timp Temperatura Precipitaţii Vânt Presiune Umiditate
    00:00 +26°C° 0.4 mm 2 m/s 758 mmHg 94%
    01:00 +26°C° 0.4 mm 2 m/s 758 mmHg 94%
    02:00 +26°C° 0.4 mm 1 m/s 758 mmHg 94%
    03:00 +26°C° 0.4 mm 1 m/s 757 mmHg 94%
    04:00 +26°C° 0.4 mm 1 m/s 757 mmHg 94%
    05:00 +26°C° 0 mm 1 m/s 757 mmHg 94%
    06:00 +26°C° 0 mm 1 m/s 758 mmHg 94%
    07:00 +26°C° 0 mm 1 m/s 758 mmHg 94%
    08:00 +27°C° 0.1 mm 1 m/s 758 mmHg 89%
    09:00 +28°C° 0.1 mm 1 m/s 758 mmHg 85%
    10:00 +30°C° 0.1 mm 1 m/s 758 mmHg 80%
    11:00 +30°C° 0.2 mm 2 m/s 758 mmHg 77%
    12:00 +31°C° 0.2 mm 2 m/s 757 mmHg 74%
    13:00 +31°C° 0.2 mm 3 m/s 756 mmHg 71%
    14:00 +31°C° 0.3 mm 3 m/s 756 mmHg 76%
    15:00 +30°C° 0.3 mm 4 m/s 756 mmHg 80%
    16:00 +29°C° 0.3 mm 4 m/s 755 mmHg 84%
    17:00 +29°C° 0.5 mm 4 m/s 756 mmHg 88%
    18:00 +28°C° 0.5 mm 4 m/s 757 mmHg 91%
    19:00 +27°C° 0.5 mm 3 m/s 757 mmHg 95%
    20:00 +27°C° 0.7 mm 3 m/s 758 mmHg 95%
    21:00 +27°C° 0.7 mm 3 m/s 758 mmHg 95%
    22:00 +27°C° 0.7 mm 3 m/s 759 mmHg 95%
    23:00 +27°C° 1.1 mm 3 m/s 758 mmHg 94%
    Arată mai mult